User: anonymous   Login
Location: Berg
(47.2344°N, 9.5296°E)
Time: 19:47:50
(UTC+00:00)
Language:

NOAA 15 - Orbit

View from above orbital plane
View from above orbital plane
View from above satellite
View from above satellite

Ground track
Ground track

The orbit data is extracted from the following two-line orbital elements,

1 25338U 98030A   21112.51554972  .00000080  00000-0  51830-4 0  9995
2 25338  98.6877 141.5262 0011565  85.2105 275.0396 14.26023682193276
Epoch (UTC): 22 April 2021 12:22:23
Eccentricity: 0.0011565
inclination: 98.6877°
perigee height: 797 km
apogee height: 813 km
right ascension of ascending node: 141.5262°
argument of perigee: 85.2105°
revolutions per day: 14.26023682
mean anomaly at epoch: 275.0396°
orbit number at epoch: 19327

The dashed part of the orbit path shows where the satellite is in the earth's shadow,  

DLR